Location: Binningen
(47.7924°N, 8.7261°E)
Time: 06:26:49
(UTC+00:00)

Cosmos 1733 Rocket - Pass Details

Date: 29 September 2021
Orbit: 604 x 627 km, 82.5° (Epoch: 25 October)

Event Time Altitude Azimuth Distance (km) Brightness Sun altitude
Rises 04:13:14 0° 348° (NNW) 2,893 6.5 -12.2°
Reaches altitude 10° 04:15:28 10° 347° (NNW) 1,987 5.6 -11.9°
Maximum altitude 04:19:51 74° 264° (W) 648 3.0 -11.1°
Drops below altitude 10° 04:24:14 10° 179° (S) 1,985 5.6 -10.4°
Sets 04:26:28 0° 177° (S) 2,889 6.4 -10.1°
